[[{"header":{"parameterUnit":"m.s-1","parameterCategory":1,"la1":30.2991,"la2":30.254,"lo1":-89.0895,"lo2":-89.0444,"dy":0.0017,"dx":0.0017,"nx":28,"ny":28,"refTime":"2025-07-05T09:00:00:Z","depth":0,"parameterNumber":2,"parameterNumberName":"U-component_of_WINDS"},"data":[0,0,0,0,0,0,0,0,0,0,0,0,0,0,0,0,0,0,0,0,0,0,0,0,0,0,0,0,0,0,0,0,0,0,0,0,0,0,0,0,0,0,0,0,0,0,0,0,0,0,0,0,0,0,0,0,0,0,3.7866,3.7866,0,3.7887,3.7887,3.7888,3.7789,3.7786,3.7783,3.7781,3.7804,3.7807,3.7811,0,0,0,0,0,0,0,0,0,0,0,0,0,3.774,3.7743,3.7866,3.7866,3.7866,3.7887,3.7887,3.7888,3.779,3.7786,3.7783,3.7779,3.7803,3.7807,3.7811,0,0,0,0,0,0,0,0,0,0,0,0,0,3.7781,3.7744,3.7866,3.782,3.7816,3.7887,3.7887,3.7888,3.779,3.7786,3.7782,3.7778,3.7802,3.7806,3.7811,3.7928,0,0,3.7827,3.7829,0,0,0,0,0,0,0,0,3.7779,3.7786,3.7826,3.7823,3.7819,3.7831,3.7851,3.7901,3.7792,3.78,3.7781,3.7776,3.7817,3.782,3.7834,3.7929,3.793,3.7827,3.783,3.7832,3.7833,0,0,0,0,0,0,0,3.7776,3.7785,3.7874,3.7827,3.7822,3.7798,3.7799,3.7861,3.7832,3.7799,3.7792,3.7796,3.7814,3.7829,3.7833,3.7931,3.7827,3.7831,3.7834,3.7836,3.8121,3.8125,0,0,0,0,0,0,3.7779,3.7783,3.7873,3.7875,3.7788,3.7804,3.7805,3.7831,3.7831,3.7827,3.7799,3.7791,3.7823,3.7828,3.7834,3.7968,3.7832,3.7837,3.784,3.8116,3.8122,3.8127,0,0,0,0,0,0,3.7777,3.7788,3.7873,3.7827,3.7836,3.7811,3.7841,3.7834,3.7849,3.7832,3.7826,3.782,3.782,3.7827,3.7905,3.7968,3.7839,3.7843,3.8111,3.8118,3.8124,3.824,0,0,0,0,0,0,3.7774,3.7788,3.7832,3.7829,3.7839,3.7943,3.7845,3.7838,3.7858,3.7847,3.785,3.7846,3.7817,3.7898,3.791,3.7972,3.7847,3.8105,3.8114,3.8122,3.823,3.825,3.8267,0,0,0,0,0,3.777,3.7865,3.7835,3.7846,3.7893,3.7947,3.7953,3.7917,3.7864,3.7907,3.7896,3.7846,3.796,3.7907,3.7919,3.7984,3.8101,3.8112,3.8122,3.8222,3.8246,3.8266,0,0,0,0,0,0,3.7877,3.7863,3.783,3.7927,3.7939,3.793,3.7985,3.7944,3.7972,3.796,3.7915,3.7917,3.8002,3.8001,3.7943,3.8096,3.8021,3.8034,3.8093,3.8116,3.8134,3.8131,3.7851,0,0,0,0,0,3.7912,3.7957,3.7943,3.8029,3.8037,3.801,3.8033,3.8004,3.8014,3.8019,3.8013,3.8026,3.8064,3.809,3.8125,3.8231,3.8229,3.8282,3.83,3.8315,3.8326,3.838,3.8402,3.8161,3.8161,3.8161,0,0,3.7985,3.7983,3.8014,3.8051,3.8057,3.8104,3.8015,3.8069,3.8103,3.8027,3.81,3.8096,3.8107,3.8199,3.8239,3.8201,3.8393,3.8328,3.834,3.8343,3.8393,3.8416,3.8436,3.8168,3.8167,3.8165,0,0,3.814,3.8144,3.8215,3.8223,3.8232,3.8214,3.8231,3.8229,3.8224,3.8296,3.8239,3.828,3.8347,3.8356,3.837,3.8529,3.8483,3.8542,3.8636,3.8689,3.8708,3.8724,3.8779,3.8799,3.8554,3.8554,3.8554,0,3.8229,3.8297,3.8257,3.8315,3.8332,3.8265,3.8336,3.8346,3.8367,3.838,3.8338,3.842,3.8423,3.8514,3.8553,3.8568,3.8585,3.854,3.8708,3.8725,3.8739,3.8791,3.8812,3.8561,3.856,3.8559,3.8559,0,3.8404,3.8453,3.851,3.853,3.8554,3.8619,3.8588,3.8618,3.8587,3.8573,3.8647,3.8648,3.868,3.8701,3.8672,3.8789,3.8764,3.8716,3.8639,3.877,3.8817,3.8837,3.8571,3.8568,3.8566,3.8565,0,0,3.8627,3.8624,3.8646,3.8653,3.8659,3.8696,3.8757,3.8788,3.8813,3.8831,3.8879,3.8938,3.8893,3.8908,3.888,3.8927,3.905,3.8873,3.8872,3.8903,3.9176,3.921,3.9234,3.9021,3.9024,3.9027,3.9174,0,3.8777,3.888,3.8846,3.8951,3.8994,3.8931,3.8984,3.8994,3.8983,3.9018,3.9005,3.9046,3.8985,3.8994,3.9037,3.9026,3.9104,3.9015,3.9065,3.9067,3.9061,3.9259,3.9296,3.9434,3.9192,3.9196,3.9198,0,3.8966,3.8989,3.9098,3.9094,3.9111,3.916,3.9184,3.9219,3.9229,3.9217,3.9235,3.9196,3.9255,3.918,3.926,3.9201,3.922,3.9217,3.9222,3.9223,3.9138,3.9263,3.9477,3.9497,3.9227,3.9225,3.9223,0,3.9114,3.9173,3.9245,3.9254,3.9253,3.9288,3.9289,3.9294,3.9314,3.9337,3.9349,3.9379,3.9394,3.9418,3.9389,3.9337,3.9473,3.9395,3.9463,3.9464,3.9493,3.9491,3.971,3.951,3.9509,3.9509,3.9508,0,3.9284,3.9352,3.9311,3.9355,3.9429,3.939,3.9465,3.9459,3.9464,3.9505,3.9454,3.9494,3.9454,3.9491,3.9468,3.9537,3.9545,3.9536,3.9529,3.954,3.954,3.9549,3.9538,3.9514,3.9513,3.9512,3.9511,0,3.9461,3.9436,3.951,3.9503,3.9502,3.9557,3.9551,3.9591,3.9576,3.963,3.964,3.9617,3.9657,3.963,3.9671,3.9656,3.9745,3.9726,3.9742,3.9735,3.9804,3.9797,4.0035,4.0063,3.9846,3.9849,3.985,0,3.9569,3.962,3.9618,3.9642,3.9646,3.9686,3.9705,3.9669,3.9692,3.9706,3.9744,3.978,3.9806,3.9873,3.986,3.989,3.987,3.9951,3.9874,3.9882,3.9868,3.9864,3.9868,3.9966,3.9969,3.9971,3.9972,0,3.9764,3.9749,3.978,3.9807,3.9832,3.9851,3.9866,3.9889,3.9852,3.9881,3.992,3.9941,3.9982,4.0017,4.0042,4.0043,4.0002,3.9997,4.0014,4.0024,4.0029,4.0024,3.9781,3.9991,3.9989,3.9988,3.9987,3.9986,3.9908,3.995,3.9954,3.999,3.9997,4.0012,4.0049,4.0039,4.0071,4.01,4.0078,4.0125,4.0131,4.0161,4.0167,4.0203,4.017,4.0195,4.0201,4.0207,4.0215,4.0026,4.0208,4.0207,4.0207,4.0206,4.0206,0,4.0098,4.0097,4.0131,4.0153,4.0181,4.0139,4.0154,4.018,4.0221,4.0231,4.0258,4.0303,4.0337,4.0326,4.0356,4.0387,4.0369,4.0396,4.0392,4.0392,4.0244,4.0225,4.041,4.041,4.041,4.041,4.041,4.041,4.02,4.0267,4.0252,4.0322,4.0321,4.0366,4.0378,4.0391,4.0398,4.0451,4.0478,4.0471,4.0472,4.0502,4.0531,4.0527,4.0539,4.0573,4.0562,4.0424,4.0403,4.0384,4.0366,4.0577,4.0577,4.0707,4.0708,4.0709]},{"header":{"parameterUnit":"m.s-1","parameterCategory":1,"la1":30.2991,"la2":30.254,"lo1":-89.0895,"lo2":-89.0444,"dy":0.0017,"dx":0.0017,"nx":28,"ny":28,"refTime":"2025-07-05T09:00:00:Z","depth":0,"parameterNumber":3,"parameterNumberName":"V-component_of_WINDS"},"data":[0,0,0,0,0,0,0,0,0,0,0,0,0,0,0,0,0,0,0,0,0,0,0,0,0,0,0,0,0,0,0,0,0,0,0,0,0,0,0,0,0,0,0,0,0,0,0,0,0,0,0,0,0,0,0,0,0,0,0.5658,0.5661,0,0.5898,0.59,0.5903,0.5996,0.5995,0.5994,0.5994,0.624,0.6247,0.6254,0,0,0,0,0,0,0,0,0,0,0,0,0,0.5281,0.5287,0.5658,0.5661,0.5664,0.5897,0.5901,0.5904,0.5996,0.5995,0.5994,0.5993,0.6238,0.6246,0.6255,0,0,0,0,0,0,0,0,0,0,0,0,0,0.5475,0.5289,0.5657,0.5738,0.5747,0.5897,0.5901,0.5905,0.5996,0.5995,0.5994,0.5993,0.6235,0.6245,0.6256,0.6343,0,0,0.6289,0.6294,0,0,0,0,0,0,0,0,0.5464,0.5488,0.5723,0.5733,0.5744,0.5916,0.5858,0.6052,0.5996,0.5902,0.5994,0.5993,0.6133,0.6152,0.6199,0.6355,0.6365,0.629,0.6297,0.6301,0.6304,0,0,0,0,0,0,0,0.545,0.5479,0.5753,0.5726,0.5739,0.5762,0.5789,0.5895,0.602,0.591,0.5917,0.5944,0.6139,0.6189,0.6206,0.6369,0.629,0.6299,0.6306,0.631,0.6607,0.6609,0,0,0,0,0,0,0.5423,0.5467,0.5745,0.576,0.5598,0.577,0.5799,0.5862,0.6019,0.6042,0.5945,0.5948,0.6171,0.6193,0.6215,0.6328,0.6301,0.6311,0.6317,0.6606,0.6607,0.6609,0,0,0,0,0,0,0.5415,0.5447,0.5736,0.5616,0.5654,0.5777,0.5846,0.5867,0.5917,0.6046,0.6069,0.5973,0.6171,0.62,0.631,0.6337,0.6316,0.6326,0.6604,0.6606,0.6608,0.6552,0,0,0,0,0,0,0.5403,0.5443,0.5478,0.5616,0.566,0.5827,0.5848,0.5872,0.5935,0.5941,0.6078,0.61,0.6172,0.6294,0.6321,0.6352,0.6334,0.6602,0.6605,0.6608,0.6553,0.6552,0.6552,0,0,0,0,0,0.539,0.5453,0.5479,0.5512,0.5705,0.5828,0.5854,0.5935,0.5937,0.5973,0.6055,0.6096,0.6329,0.6304,0.6336,0.637,0.6601,0.6604,0.6607,0.6553,0.6552,0.6552,0,0,0,0,0,0,0.5316,0.5472,0.5503,0.5613,0.5706,0.5843,0.5891,0.5933,0.6028,0.603,0.6127,0.6157,0.626,0.6326,0.6295,0.6462,0.6468,0.6478,0.6416,0.6417,0.6416,0.6399,0.6343,0,0,0,0,0,0.5312,0.5398,0.553,0.5614,0.566,0.5767,0.5823,0.5878,0.5979,0.6019,0.611,0.6206,0.6302,0.6363,0.6458,0.6562,0.6593,0.6601,0.6601,0.66,0.6608,0.6668,0.6673,0.6619,0.6619,0.6619,0,0,0.5305,0.5401,0.545,0.5602,0.5681,0.5768,0.58,0.5891,0.5957,0.6033,0.6144,0.6213,0.6327,0.6435,0.6487,0.6493,0.6629,0.6604,0.6603,0.6611,0.6672,0.6677,0.6681,0.6622,0.6621,0.6621,0,0,0.5338,0.5419,0.5498,0.5576,0.5695,0.5766,0.5784,0.5916,0.5965,0.6077,0.6136,0.6215,0.6377,0.6456,0.6518,0.6579,0.662,0.6607,0.6607,0.6665,0.6669,0.6673,0.6695,0.6702,0.6614,0.6614,0.6614,0,0.5315,0.5449,0.5534,0.5622,0.5687,0.5759,0.584,0.5912,0.6055,0.6098,0.6103,0.6308,0.639,0.6517,0.6532,0.6579,0.6604,0.6593,0.6661,0.6666,0.6672,0.6694,0.6702,0.6611,0.6612,0.6612,0.6612,0,0.5415,0.5507,0.5557,0.5693,0.5763,0.5847,0.5944,0.6005,0.6053,0.6123,0.6236,0.6337,0.6453,0.6487,0.6535,0.6621,0.6621,0.6642,0.665,0.6673,0.6696,0.6705,0.6608,0.6609,0.661,0.661,0,0,0.541,0.5591,0.5608,0.567,0.5806,0.5879,0.5966,0.6079,0.613,0.6226,0.6301,0.6436,0.6456,0.6526,0.6583,0.6633,0.6675,0.6648,0.6652,0.665,0.6777,0.676,0.6769,0.6703,0.6705,0.6706,0.6767,0,0.5462,0.562,0.5698,0.5823,0.5909,0.5978,0.6053,0.6145,0.6212,0.6295,0.6369,0.6463,0.6483,0.6525,0.6577,0.6659,0.6702,0.6655,0.6774,0.6777,0.6744,0.6781,0.6765,0.6818,0.6776,0.6778,0.6779,0,0.5544,0.5639,0.5771,0.5897,0.5936,0.6002,0.6112,0.619,0.6295,0.634,0.6417,0.6473,0.6567,0.6566,0.6697,0.6663,0.6716,0.6763,0.6768,0.6783,0.678,0.6798,0.6836,0.6844,0.6794,0.6793,0.6792,0,0.5527,0.5688,0.5789,0.584,0.5988,0.6033,0.6097,0.6201,0.6264,0.636,0.6402,0.6507,0.6565,0.6645,0.6727,0.672,0.685,0.6857,0.6891,0.6889,0.6917,0.6914,0.6965,0.6949,0.6949,0.6948,0.6948,0,0.5577,0.5656,0.5783,0.5845,0.5935,0.6023,0.611,0.6179,0.6271,0.6347,0.6413,0.6483,0.6588,0.6671,0.6736,0.6834,0.686,0.69,0.6916,0.6894,0.6889,0.6931,0.693,0.6951,0.695,0.695,0.6949,0,0.5574,0.5663,0.5777,0.5907,0.5942,0.6002,0.6115,0.6177,0.6247,0.6343,0.6371,0.6481,0.6582,0.6672,0.6806,0.685,0.6951,0.6971,0.6915,0.6924,0.6954,0.695,0.7034,0.705,0.7021,0.7022,0.7022,0,0.5601,0.5663,0.58,0.5856,0.5918,0.6007,0.6072,0.6161,0.6225,0.6348,0.6396,0.6502,0.6592,0.6751,0.6843,0.6946,0.6969,0.6991,0.6985,0.6961,0.697,0.6966,0.6973,0.6991,0.6991,0.6991,0.6991,0,0.5639,0.5679,0.5769,0.5874,0.5949,0.6036,0.6125,0.6167,0.6273,0.6342,0.6446,0.6515,0.6652,0.6757,0.687,0.6936,0.6981,0.6992,0.7005,0.6984,0.695,0.697,0.6915,0.699,0.699,0.699,0.699,0.699,0.5653,0.5711,0.5816,0.5914,0.599,0.6072,0.6137,0.6215,0.6303,0.6421,0.6468,0.6574,0.6677,0.6833,0.6899,0.6983,0.6992,0.7011,0.7016,0.702,0.7016,0.6935,0.7004,0.7004,0.7004,0.7005,0.7005,0,0.5695,0.5766,0.5855,0.5977,0.6054,0.6089,0.6189,0.6251,0.6343,0.6435,0.6522,0.6641,0.6743,0.6842,0.6948,0.6997,0.702,0.7022,0.702,0.7034,0.7002,0.698,0.7001,0.7001,0.7001,0.7001,0.7001,0.7001,0.5726,0.5826,0.5879,0.6017,0.6088,0.6192,0.6246,0.6322,0.6396,0.6526,0.661,0.6674,0.6769,0.6883,0.6977,0.7004,0.704,0.7036,0.7069,0.7037,0.7037,0.7036,0.7016,0.7043,0.7043,0.7094,0.7094,0.7095]}]]